CW8019 Jupiter FL US current weather conditions

sailwx.info

Wind from 116 at 6 knots gusting 12

Air temperature 32.2° C
Dewpoint 25.5° C

Last reported at 2019-Jul-16 21:59 UTC.
Time now 2019-Jul-16 22:22 UTC

Location: N 26°56' W 080°07'.
View on Google Maps.

See reports from other nearby stations

  
Tides and Currents Weather Stations Pressure Air Temp Water Temp Dewpoint Dewpoint Depression Visibility Wind Speed Wind Dir Waves Ship Positions
date/time (UTC)wind fromknots sea level pressurealtimeterstation pressurevisibilityair tempwater tempwave heightnotes
2019-Jul-16 22:09 135 5 gusting 10 32.2
2019-Jul-16 21:59 116 6 gusting 12 32.2
2019-Jul-16 21:54 138 5 gusting 10 32.8
2019-Jul-16 21:49 094 6 gusting 10 32.8
2019-Jul-16 21:44 126 6 gusting 10 32.8
2019-Jul-16 21:39 127 4 gusting 10 32.8
2019-Jul-16 21:34 132 7 gusting 13 32.8
2019-Jul-16 21:29 127 7 gusting 12 32.8
2019-Jul-16 21:24 116 5 gusting 10 32.8
2019-Jul-16 21:14 107 6 gusting 10 32.8
2019-Jul-16 20:54 122 6 gusting 12 33.3
2019-Jul-16 20:49 103 5 gusting 13 32.8
2019-Jul-16 20:44 113 5 gusting 12 32.8
2019-Jul-16 20:29 106 6 gusting 12 33.3
2019-Jul-16 20:24 107 7 gusting 11 33.3
2019-Jul-16 20:19 103 6 gusting 11 33.3
2019-Jul-16 20:09 102 5 gusting 11 33.9
2019-Jul-16 19:49 103 6 gusting 11 33.9
2019-Jul-16 19:44 115 6 gusting 10 33.3
2019-Jul-16 19:39 097 5 gusting 11 33.3
2019-Jul-16 19:34 145 7 gusting 14 33.3
2019-Jul-16 19:29 150 5 gusting 12 33.9
2019-Jul-16 19:24 106 8 gusting 12 33.3
2019-Jul-16 19:04 095 6 gusting 11 33.9
2019-Jul-16 18:59 094 6 gusting 12 33.9
2019-Jul-16 18:54 108 6 gusting 13 33.9
2019-Jul-16 18:44 132 7 gusting 13 33.3
2019-Jul-16 18:39 128 6 gusting 13 33.3
2019-Jul-16 18:34 101 7 gusting 12 33.9
2019-Jul-16 18:24 096 5 gusting 10 33.3
2019-Jul-16 18:04 111 6 gusting 12 33.3
2019-Jul-16 17:59 135 7 gusting 11 32.8
2019-Jul-16 17:54 111 5 gusting 12 33.3
2019-Jul-16 17:49 133 6 gusting 11 33.9
2019-Jul-16 17:39 123 6 gusting 12 33.3
2019-Jul-16 17:34 111 6 gusting 11 33.3
2019-Jul-16 17:29 124 7 gusting 13 33.3
2019-Jul-16 17:24 115 6 gusting 10 33.3
2019-Jul-16 17:14 091 6 gusting 10 33.9
2019-Jul-16 17:09 106 6 gusting 11 33.3
2019-Jul-16 16:54 112 6 gusting 10 33.3
2019-Jul-16 16:49 123 7 gusting 12 33.3
2019-Jul-16 16:39 094 6 gusting 12 33.3
2019-Jul-16 16:34 079 6 gusting 11 33.3
2019-Jul-16 16:29 102 7 gusting 11 32.8
2019-Jul-16 16:24 089 6 gusting 12 33.3
2019-Jul-16 16:14 143 5 gusting 11 32.8
2019-Jul-16 16:09 135 4 gusting 8 32.8
2019-Jul-16 16:04 113 6 gusting 10 32.8
2019-Jul-16 15:59 105 6 gusting 13 32.8
2019-Jul-16 15:54 111 6 gusting 12 33.3
2019-Jul-16 15:49 122 5 gusting 11 33.3
2019-Jul-16 15:44 103 6 gusting 10 33.3
2019-Jul-16 15:39 110 6 gusting 11 33.3
2019-Jul-16 15:34 088 6 gusting 12 33.3
2019-Jul-16 15:24 095 6 gusting 10 33.3
2019-Jul-16 15:19 089 6 gusting 10 33.3
2019-Jul-16 15:09 101 4 gusting 10 33.3
2019-Jul-16 14:59 086 6 gusting 10 33.3
2019-Jul-16 14:54 086 2 gusting 8 32.8
2019-Jul-16 14:49 105 4 gusting 8 32.8
2019-Jul-16 14:44 116 4 gusting 10 32.8
2019-Jul-16 14:39 089 4 gusting 10 32.8
2019-Jul-16 14:34 096 3 gusting 6 32.8
2019-Jul-16 14:29 138 2 gusting 7 32.8
2019-Jul-16 14:19 088 4 gusting 6 32.8
2019-Jul-16 14:09 106 4 gusting 10 32.8
2019-Jul-16 14:04 086 4 gusting 7 32.8
2019-Jul-16 13:59 152 3 gusting 6 32.8
2019-Jul-16 13:54 159 1 gusting 5 32.2
2019-Jul-16 13:39 153 2 gusting 6 32.2
2019-Jul-16 13:29 139 2 gusting 7 31.7
2019-Jul-16 13:24 098 5 gusting 7 31.7
2019-Jul-16 13:19 092 4 gusting 8 31.7
2019-Jul-16 13:09 093 2 gusting 6 31.1
2019-Jul-16 13:04 104 2 gusting 6 31.1
2019-Jul-16 12:59 084 1 gusting 6 30.6
2019-Jul-16 12:54 090 0 gusting 5 30.6
2019-Jul-16 12:49 108 2 gusting 5 30.6
2019-Jul-16 12:44 084 3 gusting 6 30.6
2019-Jul-16 12:39 134 2 gusting 6 30.6
2019-Jul-16 12:34 112 2 gusting 6 30.0
2019-Jul-16 12:29 090 2 gusting 6 30.0
2019-Jul-16 12:24 110 2 gusting 6 30.0
2019-Jul-16 12:19 120 3 gusting 6 29.4
2019-Jul-16 12:14 103 2 gusting 6 29.4
2019-Jul-16 12:04 097 1 gusting 2 28.9
2019-Jul-16 11:54 098 2 gusting 5 28.3
2019-Jul-16 11:49 101 27.8
2019-Jul-16 11:44 101 0 gusting 2 27.8
2019-Jul-16 11:34 108 27.2
2019-Jul-16 11:29 109 27.2
2019-Jul-16 11:24 109 27.2
2019-Jul-16 11:19 109 27.2
2019-Jul-16 10:59 054 27.2
2019-Jul-16 10:54 048 27.2
2019-Jul-16 10:44 034 0 gusting 1 27.2
2019-Jul-16 10:39 119 26.7
2019-Jul-16 10:34 119 26.7
2019-Jul-16 10:29 119 0 gusting 1 26.7
2019-Jul-16 10:14 118 27.2
2019-Jul-16 10:09 118 27.2
2019-Jul-16 10:04 118 27.2
2019-Jul-16 09:44 118 27.2
2019-Jul-16 09:39 118 27.8
2019-Jul-16 09:29 118 27.8
2019-Jul-16 09:24 119 27.8
2019-Jul-16 09:19 119 27.8
2019-Jul-16 09:14 119 1 gusting 2 27.2
2019-Jul-16 09:09 119 1 gusting 2 27.2
2019-Jul-16 09:04 111 0 gusting 1 27.2
2019-Jul-16 08:59 111 27.2
2019-Jul-16 08:54 111 27.2
2019-Jul-16 08:49 111 27.2
2019-Jul-16 08:44 111 27.2
2019-Jul-16 08:39 111 27.2
2019-Jul-16 08:34 111 27.8
2019-Jul-16 08:24 111 27.8
2019-Jul-16 08:14 111 27.8
2019-Jul-16 08:09 111 28.3
2019-Jul-16 07:59 111 28.3
2019-Jul-16 07:54 111 28.3
2019-Jul-16 07:49 111 28.3
2019-Jul-16 07:44 111 28.3
2019-Jul-16 07:24 106 0 gusting 2 28.3
2019-Jul-16 07:19 106 0 gusting 2 28.3
2019-Jul-16 06:59 089 1 gusting 2 28.3
2019-Jul-16 06:44 097 1 gusting 2 28.9
2019-Jul-16 06:39 093 2 gusting 5 28.9
2019-Jul-16 06:34 091 2 gusting 6 28.9
2019-Jul-16 06:14 081 2 gusting 7 28.9
2019-Jul-16 06:09 084 1 gusting 7 28.9
2019-Jul-16 06:04 087 4 gusting 8 28.9
2019-Jul-16 05:59 105 3 gusting 7 28.9
2019-Jul-16 05:54 091 4 gusting 8 28.9
2019-Jul-16 05:39 088 2 gusting 6 28.9
2019-Jul-16 05:29 105 2 gusting 6 28.9
2019-Jul-16 05:24 098 2 gusting 7 28.9
2019-Jul-16 05:14 076 1 gusting 5 28.9
2019-Jul-16 05:09 093 2 gusting 7 28.9
2019-Jul-16 05:04 087 4 gusting 7 28.9
2019-Jul-16 04:59 090 2 gusting 6 28.9
2019-Jul-16 04:54 091 1 gusting 7 28.9
2019-Jul-16 04:49 088 4 gusting 8 28.9
2019-Jul-16 04:44 074 0 gusting 2 28.9
2019-Jul-16 04:29 085 1 gusting 2 29.4
2019-Jul-16 04:24 088 1 gusting 5 29.4
2019-Jul-16 04:19 048 1 gusting 2 29.4
2019-Jul-16 04:14 085 2 gusting 6 29.4
2019-Jul-16 04:09 100 1 gusting 6 29.4
2019-Jul-16 04:04 098 2 gusting 6 29.4
2019-Jul-16 03:59 094 3 gusting 6 29.4
2019-Jul-16 03:44 088 1 gusting 5 29.4
2019-Jul-16 03:39 083 1 gusting 6 29.4
2019-Jul-16 03:29 088 2 gusting 6 29.4
2019-Jul-16 03:19 089 1 gusting 6 29.4
2019-Jul-16 03:14 099 2 gusting 6 29.4
2019-Jul-16 03:09 091 2 gusting 6 29.4
2019-Jul-16 02:59 096 1 gusting 5 29.4
2019-Jul-16 02:54 082 1 gusting 5 29.4
2019-Jul-16 02:49 091 2 gusting 5 29.4
2019-Jul-16 02:44 085 1 gusting 6 29.4
2019-Jul-16 02:39 088 2 gusting 6 29.4
2019-Jul-16 02:29 079 1 gusting 5 29.4
2019-Jul-16 02:19 040 1 gusting 2 29.4
2019-Jul-16 02:09 042 1 gusting 4 29.4
2019-Jul-16 02:04 031 1 gusting 5 29.4
2019-Jul-16 01:54 079 29.4
2019-Jul-16 01:49 069 1 gusting 2 29.4
2019-Jul-16 01:44 068 1 gusting 5 29.4
2019-Jul-16 01:39 103 0 gusting 2 29.4
2019-Jul-16 01:34 120 29.4
2019-Jul-16 01:29 050 0 gusting 2 29.4
2019-Jul-16 01:24 050 1 gusting 2 29.4
2019-Jul-16 01:04 093 2 gusting 5 29.4
2019-Jul-16 00:59 091 1 gusting 6 29.4
2019-Jul-16 00:44 063 1 gusting 4 30.0
2019-Jul-16 00:39 070 3 gusting 7 30.0
2019-Jul-16 00:34 078 2 gusting 6 30.0
2019-Jul-16 00:29 097 3 gusting 6 30.0
2019-Jul-16 00:24 098 0 gusting 5 30.0
2019-Jul-16 00:19 105 1 gusting 2 30.0
2019-Jul-16 00:14 096 1 gusting 5 30.0
2019-Jul-16 00:09 092 2 gusting 6 30.6
2019-Jul-16 00:04 100 4 gusting 6 30.6
2019-Jul-15 23:54 091 4 gusting 6 30.6
2019-Jul-15 23:49 096 5 gusting 8 30.6
2019-Jul-15 23:34 103 2 gusting 8 31.1
2019-Jul-15 23:29 102 4 gusting 7 31.7
2019-Jul-15 23:19 104 4 gusting 8 31.7
2019-Jul-15 23:14 094 4 gusting 7 32.2
2019-Jul-15 23:09 080 2 gusting 6 32.2
2019-Jul-15 23:04 038 1 gusting 6 32.2
2019-Jul-15 22:59 081 2 gusting 6 31.7
2019-Jul-15 22:54 095 4 gusting 8 31.7
2019-Jul-15 22:49 087 3 gusting 10 32.2
2019-Jul-15 22:44 060 2 gusting 6 32.2
2019-Jul-15 22:39 090 3 gusting 8 32.2
2019-Jul-15 22:34 093 5 gusting 8 32.2
2019-Jul-15 22:29 110 3 gusting 10 32.2
2019-Jul-15 22:24 081 5 gusting 10 32.8
2019-Jul-15 22:19 096 2 gusting 8 32.8
2019-Jul-15 22:14 095 4 gusting 6 32.8
2019-Jul-15 22:09 088 3 gusting 7 32.8
2019-Jul-15 22:04 123 5 gusting 10 32.8
2019-Jul-15 21:54 075 3 gusting 7 33.3
2019-Jul-15 21:49 063 2 gusting 6 33.3
2019-Jul-15 21:44 048 4 gusting 6 33.3
2019-Jul-15 21:39 098 4 gusting 10 33.3
2019-Jul-15 21:34 096 2 gusting 7 33.3
2019-Jul-15 21:29 115 6 gusting 10 33.3
2019-Jul-15 21:24 039 2 gusting 10 32.8
2019-Jul-15 21:19 105 6 gusting 10 32.8
2019-Jul-15 21:14 090 4 gusting 10 33.3
2019-Jul-15 21:09 115 4 gusting 8 32.8
2019-Jul-15 20:59 104 3 gusting 7 32.8
2019-Jul-15 20:54 122 6 gusting 10 33.3
2019-Jul-15 20:49 094 3 gusting 8 33.3
2019-Jul-15 20:44 108 3 gusting 6 33.3
2019-Jul-15 20:34 083 4 gusting 10 33.3
2019-Jul-15 20:29 103 4 gusting 8 33.9
2019-Jul-15 20:19 095 5 gusting 7 33.3
2019-Jul-15 20:04 081 4 gusting 7 34.4
2019-Jul-15 19:59 073 2 gusting 6 33.9
2019-Jul-15 19:49 104 6 gusting 10 33.3
2019-Jul-15 19:39 106 5 gusting 10 33.3
2019-Jul-15 19:34 083 8 gusting 12 33.3
2019-Jul-15 19:29 094 6 gusting 10 33.3
2019-Jul-15 19:19 067 5 gusting 10 33.3
2019-Jul-15 19:09 088 2 gusting 8 33.9
2019-Jul-15 19:04 111 6 gusting 10 33.3
2019-Jul-15 18:59 093 5 gusting 10 33.3
2019-Jul-15 18:54 096 6 gusting 10 33.3
2019-Jul-15 18:39 094 6 gusting 10 33.9
2019-Jul-15 18:24 079 3 gusting 8 33.9
2019-Jul-15 18:04 097 6 gusting 10 33.3
2019-Jul-15 17:59 102 5 gusting 11 33.3
2019-Jul-15 17:49 111 5 gusting 11 33.3
2019-Jul-15 17:34 084 4 gusting 8 33.3
2019-Jul-15 17:24 104 6 gusting 10 33.3
2019-Jul-15 17:19 112 4 gusting 7 33.9
2019-Jul-15 17:14 083 6 gusting 10 33.3
2019-Jul-15 17:09 116 4 gusting 8 33.3
2019-Jul-15 17:04 111 6 gusting 10 32.8
2019-Jul-15 16:59 105 6 gusting 12 32.8
2019-Jul-15 16:29 122 4 gusting 11 32.8
2019-Jul-15 16:24 102 5 gusting 10 33.3
2019-Jul-15 16:19 064 4 gusting 10 33.3
2019-Jul-15 16:14 082 3 gusting 7 33.3
2019-Jul-15 16:04 119 5 gusting 7 32.8
2019-Jul-15 15:59 123 6 gusting 10 32.8
2019-Jul-15 15:54 126 5 gusting 8 32.8
2019-Jul-15 15:44 123 4 gusting 10 32.8
2019-Jul-15 15:34 110 5 gusting 10 32.8
2019-Jul-15 15:24 109 5 gusting 8 32.8
2019-Jul-15 15:14 092 5 gusting 8 32.8
2019-Jul-15 15:09 100 3 gusting 8 32.8
2019-Jul-15 15:04 087 6 gusting 11 32.8
2019-Jul-15 14:59 067 3 gusting 10 32.8
2019-Jul-15 14:54 100 5 gusting 10 32.8
2019-Jul-15 14:49 101 6 gusting 11 32.8
2019-Jul-15 14:44 091 5 gusting 10 32.8
2019-Jul-15 14:39 095 4 gusting 8 32.2
2019-Jul-15 14:29 097 5 gusting 10 32.2
2019-Jul-15 14:24 128 3 gusting 8 32.2
2019-Jul-15 14:19 125 2 gusting 6 32.2
2019-Jul-15 14:14 110 5 gusting 10 32.2
2019-Jul-15 14:09 094 4 gusting 8 31.7
2019-Jul-15 14:04 086 5 gusting 10 31.7
2019-Jul-15 13:59 086 4 gusting 7 31.7
2019-Jul-15 13:54 098 4 gusting 10 31.7
2019-Jul-15 13:44 108 4 gusting 7 31.7
2019-Jul-15 13:34 093 5 gusting 8 31.1
2019-Jul-15 13:24 138 5 gusting 10 31.1
2019-Jul-15 13:19 098 4 gusting 8 31.1
2019-Jul-15 12:59 122 5 gusting 7 30.6
2019-Jul-15 12:54 079 1 gusting 6 30.6
2019-Jul-15 12:49 116 6 gusting 8 30.0
2019-Jul-15 12:44 086 4 gusting 7 30.0
2019-Jul-15 12:39 095 4 gusting 7 30.0
2019-Jul-15 12:29 105 4 gusting 8 30.0
2019-Jul-15 12:19 102 2 gusting 8 29.4
2019-Jul-15 12:14 098 3 gusting 6 29.4
2019-Jul-15 11:44 086 2 gusting 6 28.9
2019-Jul-15 11:39 104 2 gusting 6 28.3
2019-Jul-15 11:34 091 0 gusting 2 28.3
2019-Jul-15 11:29 091 1 gusting 2 28.3
2019-Jul-15 11:24 130 1 gusting 4 28.3
2019-Jul-15 11:14 086 1 gusting 2 28.3
2019-Jul-15 11:09 094 0 gusting 2 28.3
2019-Jul-15 10:59 091 1 gusting 2 28.3
2019-Jul-15 10:54 086 1 gusting 2 28.3
2019-Jul-15 10:49 093 1 gusting 2 28.3
2019-Jul-15 10:44 092 2 gusting 5 28.3
2019-Jul-15 10:34 099 0 gusting 2 28.3
2019-Jul-15 10:29 093 2 gusting 5 28.3
2019-Jul-15 10:24 102 1 gusting 2 28.3
2019-Jul-15 10:19 098 1 gusting 5 28.3
2019-Jul-15 10:14 080 1 gusting 5 28.3
2019-Jul-15 10:09 096 1 gusting 2 28.3
2019-Jul-15 09:59 077 2 gusting 6 28.3
2019-Jul-15 09:54 094 1 gusting 2 28.3
2019-Jul-15 09:49 110 1 gusting 5 28.3
2019-Jul-15 09:44 098 0 gusting 2 28.3
2019-Jul-15 09:39 097 1 gusting 6 28.3
2019-Jul-15 09:29 101 1 gusting 5 28.3
2019-Jul-15 09:24 101 1 gusting 5 28.3
2019-Jul-15 09:09 114 2 gusting 6 28.9
2019-Jul-15 09:04 104 1 gusting 2 28.9
2019-Jul-15 08:54 124 2 gusting 6 28.9
2019-Jul-15 08:49 113 2 gusting 6 28.9
2019-Jul-15 08:44 100 1 gusting 2 28.3
2019-Jul-15 08:34 093 2 gusting 5 28.3
2019-Jul-15 08:29 084 1 gusting 6 28.3
2019-Jul-15 08:24 098 3 gusting 6 28.3
2019-Jul-15 08:19 094 1 gusting 5 28.3
2019-Jul-15 08:09 096 2 gusting 5 28.3
2019-Jul-15 08:04 100 2 gusting 6 28.3
2019-Jul-15 07:59 094 2 gusting 6 28.9
2019-Jul-15 07:54 102 0 gusting 5 28.3
2019-Jul-15 07:49 098 2 gusting 6 28.3
2019-Jul-15 07:44 090 2 gusting 2 28.3
2019-Jul-15 07:39 087 0 gusting 2 28.3
2019-Jul-15 07:34 095 1 gusting 6 28.3
2019-Jul-15 07:29 083 2 gusting 6 28.3
2019-Jul-15 07:09 093 4 gusting 6 28.3
2019-Jul-15 07:04 087 4 gusting 6 28.3
2019-Jul-15 06:59 094 2 gusting 6 28.9
2019-Jul-15 06:54 086 1 gusting 5 28.9
2019-Jul-15 06:49 089 1 gusting 2 28.9
2019-Jul-15 06:34 094 2 gusting 6 28.9
2019-Jul-15 06:24 107 2 gusting 6 28.9
2019-Jul-15 06:19 098 1 gusting 7 28.9
2019-Jul-15 06:09 088 2 gusting 6 28.9
2019-Jul-15 06:04 106 4 gusting 7 28.9
2019-Jul-15 05:54 103 3 gusting 6 28.9
2019-Jul-15 05:49 099 3 gusting 6 28.9
2019-Jul-15 05:44 093 1 gusting 5 28.9
2019-Jul-15 05:34 094 2 gusting 6 28.9
2019-Jul-15 05:24 084 2 gusting 6 28.9
2019-Jul-15 05:19 085 2 gusting 6 28.9
2019-Jul-15 05:14 105 1 gusting 5 28.9
2019-Jul-15 05:09 091 2 gusting 6 28.9
2019-Jul-15 04:59 094 1 gusting 5 28.9
2019-Jul-15 04:54 086 1 gusting 8 28.9
2019-Jul-15 04:49 069 1 gusting 5 28.9
2019-Jul-15 04:44 094 2 gusting 6 28.9
2019-Jul-15 04:34 092 2 gusting 5 28.9
2019-Jul-15 04:29 075 1 gusting 4 28.9
2019-Jul-15 04:24 090 2 gusting 6 28.9
2019-Jul-15 04:19 093 1 gusting 5 28.9
2019-Jul-15 04:14 086 3 gusting 6 28.9
2019-Jul-15 04:04 085 2 gusting 6 28.9
2019-Jul-15 03:59 087 3 gusting 7 28.9
2019-Jul-15 03:54 088 2 gusting 6 28.9
2019-Jul-15 03:44 091 1 gusting 2 29.4
2019-Jul-15 03:39 099 1 gusting 6 29.4
2019-Jul-15 03:34 078 2 gusting 6 29.4
2019-Jul-15 03:29 062 3 gusting 6 29.4
2019-Jul-15 03:14 096 2 gusting 5 29.4
2019-Jul-15 03:09 109 1 gusting 6 29.4
2019-Jul-15 02:59 078 2 gusting 6 29.4
2019-Jul-15 02:54 077 4 gusting 6 29.4
2019-Jul-15 02:49 079 1 gusting 7 29.4
2019-Jul-15 02:34 099 2 gusting 10 29.4
2019-Jul-15 02:29 085 2 gusting 6 29.4
2019-Jul-15 02:24 094 1 gusting 6 29.4
2019-Jul-15 02:19 081 1 gusting 6 29.4
2019-Jul-15 02:14 081 1 gusting 6 29.4
2019-Jul-15 02:04 036 1 gusting 2 29.4
2019-Jul-15 01:54 046 1 gusting 5 29.4
2019-Jul-15 01:49 051 1 gusting 5 29.4
2019-Jul-15 01:39 075 1 gusting 7 29.4
2019-Jul-15 01:34 074 2 gusting 5 29.4
2019-Jul-15 01:24 043 2 gusting 2 29.4
2019-Jul-15 01:19 080 2 gusting 6 29.4
2019-Jul-15 00:54 069 1 gusting 6 30.0
2019-Jul-15 00:49 074 2 gusting 6 30.0
2019-Jul-15 00:44 080 1 gusting 6 30.0
2019-Jul-15 00:34 043 2 gusting 4 30.0
2019-Jul-15 00:29 062 1 gusting 6 30.0
2019-Jul-15 00:24 054 2 gusting 6 30.0
2019-Jul-15 00:19 083 2 gusting 6 30.6
2019-Jul-15 00:14 079 1 gusting 6 30.6
2019-Jul-15 00:09 060 2 gusting 6 30.6
2019-Jul-14 23:59 095 2 gusting 8 30.6
2019-Jul-14 23:44 047 1 gusting 4 31.1
2019-Jul-14 23:34 092 1 gusting 6 31.1
2019-Jul-14 23:19 087 2 gusting 7 31.7
2019-Jul-14 23:14 044 2 gusting 6 31.7
2019-Jul-14 23:09 059 2 gusting 7 31.7
2019-Jul-14 23:04 046 2 gusting 8 32.2
2019-Jul-14 22:59 091 2 gusting 5 32.2
2019-Jul-14 22:54 050 2 gusting 2 31.7
2019-Jul-14 22:39 081 3 gusting 8 32.2
2019-Jul-14 22:29 083 5 gusting 10 32.2
2019-Jul-14 22:24 086 4 gusting 8 32.8
2019-Jul-14 22:19 077 5 gusting 8 32.8
2019-Jul-14 22:14 080 1 gusting 6 32.8
2019-Jul-14 22:09 077 2 gusting 7 32.8
2019-Jul-14 22:04 095 3 gusting 6 32.8